パンスターズ彗星

C/2017 D5 ( PanSTARRS )

English version
Home page
Updated on September 10, 2020

---------------------------------------------------------------------

・ プロフィール

発見日 2017年2月23日
発見光度 20.4等
発見者 Pan-STARRS 1 telescope (Haleakala)

・ 軌道要素

Epoch 2017 Jan. 7.0 TT = JDT 2457760.5                                          
T 2017 Jan. 8.86133 TT                                  Rudenko                 
q   2.1671926            (2000.0)            P               Q                  
z  +0.0088409      Peri.  287.81974     -0.63888992     +0.15551845             
 +/-0.0000541      Node    92.72016     +0.53887284     +0.78941352             
e   0.9808400      Incl.  131.03885     -0.54903164     +0.59383525             
From 75 observations 2017 Jan. 17-Mar. 31, mean residual 0".5.                  

・ 光度変化

        m1 = 16.0 + 5 logΔ + 10.0 log r

---------------------------------------------------------------------

軌道要素はM.P.E.C. 2020-R04に掲載されたものです。
光度グラフはComet for Windowsで作成したものです。

---------------------------------------------------------------------

Copyright(C) Seiichi Yoshida (comet@aerith.net). All rights reserved.